Zim Chicago — A8SI9 — position and weather

sailwx.info

Track history (hours):
 
Tides and Currents Weather Stations Pressure Air Temp Water Temp Dewpoint Dewpoint Depression Visibility Wind Speed Wind Dir Waves Ship Positions

Zim Chicago

Last reported at 2017-Mar-03 02:10 UTC. Time now 2017-Mar-24 16:03 UTC.
Position N 40°24' W 073°32'.
Warning: this ship's position is 21 days out of date.

Length 334 m; draft 11.4 m.

Type: Cargo ship. MMSI: 636014223.

Date/timePositionNaut miles runAvg speedWind from/ knotsBaromVisibWave heightAir tempDewpointWater temp
2017-Mar-03 02:10N 40°24' W 073°32'6 9.9
2017-Mar-03 01:31N 40°25' W 073°40'9 9.3
2017-Mar-03 00:34N 40°28' W 073°51'1110.7
2017-Mar-02 23:34N 40°34' W 074°02'7 6.9
2017-Mar-02 22:34N 40°39' W 074°09'1 1.4
2017-Mar-02 21:32N 40°40' W 074°08'0 0.0
2017-Mar-02 20:32N 40°40' W 074°08'0 0.0
2017-Mar-02 19:32N 40°40' W 074°08'0 0.0
2017-Mar-02 18:32N 40°40' W 074°08'0 0.0
2017-Mar-02 17:32N 40°40' W 074°08'0 0.0
2017-Mar-02 16:32N 40°40' W 074°08'0 0.0
2017-Mar-02 15:32N 40°40' W 074°08'0 0.0
2017-Mar-02 14:32N 40°40' W 074°08'0 0.0
2017-Mar-02 13:32N 40°40' W 074°08'0 0.0
2017-Mar-02 12:32N 40°40' W 074°08'0 0.0
2017-Mar-02 11:32N 40°40' W 074°08'0 0.0
2017-Mar-02 10:32N 40°40' W 074°08'0 0.0
2017-Mar-02 09:32N 40°40' W 074°08'0 0.0
2017-Mar-02 08:33N 40°40' W 074°08'0 0.0
2017-Mar-02 07:32N 40°40' W 074°08'0 0.0
2017-Mar-02 06:32N 40°40' W 074°08'0 0.0
2017-Mar-02 05:32N 40°40' W 074°08'0 0.0
2017-Mar-02 04:32N 40°40' W 074°08'0 0.0
2017-Mar-02 03:32N 40°40' W 074°08'0 0.0
2017-Mar-02 02:32N 40°40' W 074°08'0 0.0
2017-Mar-02 01:32N 40°40' W 074°08'0 0.0
2017-Mar-02 00:32N 40°40' W 074°08'0 0.0
2017-Mar-01 23:32N 40°40' W 074°08'0 0.0
2017-Mar-01 22:32N 40°40' W 074°08'0 0.0
2017-Mar-01 21:32N 40°40' W 074°08'0 0.0
2017-Mar-01 20:32N 40°40' W 074°08'0 0.0
2017-Mar-01 19:32N 40°40' W 074°08'0 0.0
2017-Mar-01 18:32N 40°40' W 074°08'0 0.0
2017-Mar-01 17:32N 40°40' W 074°08'0 0.0
2017-Mar-01 16:32N 40°40' W 074°08'0 0.0
2017-Mar-01 15:32N 40°40' W 074°08'0 0.0
2017-Mar-01 14:32N 40°40' W 074°08'0 0.0
2017-Mar-01 13:32N 40°40' W 074°08'0 0.0
2017-Mar-01 12:32N 40°40' W 074°08'0 0.0
2017-Mar-01 11:32N 40°40' W 074°08'0 0.0
2017-Mar-01 10:32N 40°40' W 074°08'0 0.0
2017-Mar-01 09:32N 40°40' W 074°08'0 0.0
2017-Mar-01 08:32N 40°40' W 074°08'0 0.0
2017-Mar-01 07:32N 40°40' W 074°08'0 0.0
2017-Mar-01 06:32N 40°40' W 074°08'0 0.0
2017-Mar-01 05:32N 40°40' W 074°08'0 0.0
2017-Mar-01 04:32N 40°40' W 074°08'0 0.0
2017-Mar-01 03:32N 40°40' W 074°08'0 0.0
2017-Mar-01 02:32N 40°40' W 074°08'0 0.0
2017-Mar-01 01:32N 40°40' W 074°08'0 0.0
2017-Mar-01 00:32N 40°40' W 074°08'0 0.0
2017-Feb-28 23:32N 40°40' W 074°08'0 0.0
2017-Feb-28 22:32N 40°40' W 074°08'0 0.0
2017-Feb-28 21:32N 40°40' W 074°08'2 2.0
2017-Feb-28 20:33N 40°39' W 074°07'9 8.9
2017-Feb-28 19:33N 40°31' W 074°00'1110.6
2017-Feb-28 18:33N 40°26' W 073°48'8 8.3
2017-Feb-28 17:33N 40°18' W 073°46'9 9.0
2017-Feb-28 16:33N 40°09' W 073°45'1917.1
2017-Feb-28 15:27N 39°51' W 073°44'1716.9
2017-Feb-28 14:26N 39°33' W 073°44'3 3.4
2017-Feb-28 13:30N 39°30' W 073°45'8713.9
2017-Feb-28 07:17N 38°09' W 074°25'1013.9
2017-Feb-28 06:33N 38°01' W 074°31'1414.0
2017-Feb-28 05:33N 37°49' W 074°41'1414.1
2017-Feb-28 04:33N 37°38' W 074°52'1514.1
2017-Feb-28 03:31N 37°26' W 075°03'5210.6
2017-Feb-27 22:33N 36°54' W 075°55'1212.3
2017-Feb-27 21:33N 36°59' W 076°10'10 9.6
2017-Feb-27 20:33N 36°55' W 076°20'4 3.6
2017-Feb-27 19:33N 36°51' W 076°20'0 0.0
2017-Feb-27 17:14N 36°51' W 076°20'0 0.0
2017-Feb-27 16:29N 36°51' W 076°20'0 0.0
2017-Feb-27 15:32N 36°51' W 076°20'0 0.0
2017-Feb-27 14:32N 36°51' W 076°20'0 0.0
2017-Feb-27 13:32N 36°51' W 076°20'0 0.0
2017-Feb-27 12:32N 36°51' W 076°20'0 0.0
2017-Feb-27 11:33N 36°51' W 076°20'5 5.0
2017-Feb-27 10:33N 36°56' W 076°20'1211.8
2017-Feb-27 09:33N 36°58' W 076°06'1110.6
2017-Feb-27 08:34N 36°54' W 075°53'10 9.4
2017-Feb-27 07:31N 36°48' W 075°44'36213.4
2017-Feb-26 04:33N 32°02' W 080°11'1313.6
2017-Feb-26 03:33N 31°58' W 080°27'1010.0
2017-Feb-26 02:33N 31°58' W 080°38'1212.3
2017-Feb-26 01:34N 32°02' W 080°52'1010.4
2017-Feb-26 00:33N 32°05' W 081°04'5 4.5
2017-Feb-25 23:33N 32°08' W 081°08'0 0.0
2017-Feb-25 22:30N 32°08' W 081°08'0 0.0
2017-Feb-25 21:30N 32°08' W 081°08'0 0.0
2017-Feb-25 20:30N 32°08' W 081°08'0 0.0
2017-Feb-25 19:30N 32°08' W 081°08'0 0.0
2017-Feb-25 18:30N 32°08' W 081°08'0 0.0
2017-Feb-25 17:30N 32°08' W 081°08'0 0.0
2017-Feb-25 16:30N 32°08' W 081°08'0 0.0
2017-Feb-25 15:30N 32°08' W 081°08'0 0.0
2017-Feb-25 14:18N 32°08' W 081°08'0 0.0
2017-Feb-25 13:30N 32°08' W 081°08'0 0.0
2017-Feb-25 12:30N 32°08' W 081°08'0 0.0
2017-Feb-25 11:30N 32°08' W 081°08'0 0.0
2017-Feb-25 10:24N 32°08' W 081°08'0 0.0
2017-Feb-25 09:30N 32°08' W 081°08'0 0.0
2017-Feb-25 08:24N 32°08' W 081°08'0 0.0
2017-Feb-25 07:24N 32°08' W 081°08'0 0.0
2017-Feb-25 06:24N 32°08' W 081°08'0 0.0
2017-Feb-25 05:30N 32°08' W 081°08'0 0.0
2017-Feb-25 04:30N 32°08' W 081°08'0 0.0
2017-Feb-25 03:30N 32°08' W 081°08'0 0.0
2017-Feb-25 02:30N 32°08' W 081°08'0 0.0
2017-Feb-25 01:30N 32°08' W 081°08'0 0.0
2017-Feb-25 00:30N 32°08' W 081°08'0 0.0
2017-Feb-24 23:24N 32°08' W 081°08'0 0.0
2017-Feb-24 22:30N 32°08' W 081°08'0 0.0
2017-Feb-24 21:24N 32°08' W 081°08'0 0.0
2017-Feb-24 20:30N 32°08' W 081°08'0 0.0
2017-Feb-24 19:30N 32°08' W 081°08'0 0.4
2017-Feb-24 18:33N 32°08' W 081°08'4 4.2
2017-Feb-24 17:33N 32°05' W 081°05'7 6.9
2017-Feb-24 16:33N 32°04' W 080°57'1010.5
2017-Feb-24 15:34N 31°59' W 080°46'1110.6
2017-Feb-24 14:33N 31°54' W 080°35'2 1.8
2017-Feb-24 13:31N 31°53' W 080°33'0 0.3
2017-Feb-24 12:33N 31°53' W 080°33'1 0.6
2017-Feb-24 11:33N 31°53' W 080°33'3 2.6
2017-Feb-24 10:33N 31°50' W 080°31'3 3.5
2017-Feb-24 09:33N 31°47' W 080°29'  
Track history (hours):
 
Tides and Currents Weather Stations Pressure Air Temp Water Temp Dewpoint Dewpoint Depression Visibility Wind Speed Wind Dir Waves Ship Positions

Zim Chicago

Last reported at 2017-Mar-03 02:10 UTC. Time now 2017-Mar-24 16:03 UTC.
Position N 40°24' W 073°32'.
Warning: this ship's position is 21 days out of date.

Length 334 m; draft 11.4 m.

Type: Cargo ship. MMSI: 636014223.

Date/timePositionNaut miles runAvg speedWind from/ knotsBaromVisibWave heightAir tempDewpointWater temp
2017-Mar-03 02:10N 40°24' W 073°32'6 9.9
2017-Mar-03 01:31N 40°25' W 073°40'9 9.3
2017-Mar-03 00:34N 40°28' W 073°51'1110.7
2017-Mar-02 23:34N 40°34' W 074°02'7 6.9
2017-Mar-02 22:34N 40°39' W 074°09'1 1.4
2017-Mar-02 21:32N 40°40' W 074°08'0 0.0
2017-Mar-02 20:32N 40°40' W 074°08'0 0.0
2017-Mar-02 19:32N 40°40' W 074°08'0 0.0
2017-Mar-02 18:32N 40°40' W 074°08'0 0.0
2017-Mar-02 17:32N 40°40' W 074°08'0 0.0
2017-Mar-02 16:32N 40°40' W 074°08'0 0.0
2017-Mar-02 15:32N 40°40' W 074°08'0 0.0
2017-Mar-02 14:32N 40°40' W 074°08'0 0.0
2017-Mar-02 13:32N 40°40' W 074°08'0 0.0
2017-Mar-02 12:32N 40°40' W 074°08'0 0.0
2017-Mar-02 11:32N 40°40' W 074°08'0 0.0
2017-Mar-02 10:32N 40°40' W 074°08'0 0.0
2017-Mar-02 09:32N 40°40' W 074°08'0 0.0
2017-Mar-02 08:33N 40°40' W 074°08'0 0.0
2017-Mar-02 07:32N 40°40' W 074°08'0 0.0
2017-Mar-02 06:32N 40°40' W 074°08'0 0.0
2017-Mar-02 05:32N 40°40' W 074°08'0 0.0
2017-Mar-02 04:32N 40°40' W 074°08'0 0.0
2017-Mar-02 03:32N 40°40' W 074°08'0 0.0
2017-Mar-02 02:32N 40°40' W 074°08'0 0.0
2017-Mar-02 01:32N 40°40' W 074°08'0 0.0
2017-Mar-02 00:32N 40°40' W 074°08'0 0.0
2017-Mar-01 23:32N 40°40' W 074°08'0 0.0
2017-Mar-01 22:32N 40°40' W 074°08'0 0.0
2017-Mar-01 21:32N 40°40' W 074°08'0 0.0
2017-Mar-01 20:32N 40°40' W 074°08'0 0.0
2017-Mar-01 19:32N 40°40' W 074°08'0 0.0
2017-Mar-01 18:32N 40°40' W 074°08'0 0.0
2017-Mar-01 17:32N 40°40' W 074°08'0 0.0
2017-Mar-01 16:32N 40°40' W 074°08'0 0.0
2017-Mar-01 15:32N 40°40' W 074°08'0 0.0
2017-Mar-01 14:32N 40°40' W 074°08'0 0.0
2017-Mar-01 13:32N 40°40' W 074°08'0 0.0
2017-Mar-01 12:32N 40°40' W 074°08'0 0.0
2017-Mar-01 11:32N 40°40' W 074°08'0 0.0
2017-Mar-01 10:32N 40°40' W 074°08'0 0.0
2017-Mar-01 09:32N 40°40' W 074°08'0 0.0
2017-Mar-01 08:32N 40°40' W 074°08'0 0.0
2017-Mar-01 07:32N 40°40' W 074°08'0 0.0
2017-Mar-01 06:32N 40°40' W 074°08'0 0.0
2017-Mar-01 05:32N 40°40' W 074°08'0 0.0
2017-Mar-01 04:32N 40°40' W 074°08'0 0.0
2017-Mar-01 03:32N 40°40' W 074°08'0 0.0
2017-Mar-01 02:32N 40°40' W 074°08'0 0.0
2017-Mar-01 01:32N 40°40' W 074°08'0 0.0
2017-Mar-01 00:32N 40°40' W 074°08'0 0.0
2017-Feb-28 23:32N 40°40' W 074°08'0 0.0
2017-Feb-28 22:32N 40°40' W 074°08'0 0.0
2017-Feb-28 21:32N 40°40' W 074°08'2 2.0
2017-Feb-28 20:33N 40°39' W 074°07'9 8.9
2017-Feb-28 19:33N 40°31' W 074°00'1110.6
2017-Feb-28 18:33N 40°26' W 073°48'8 8.3
2017-Feb-28 17:33N 40°18' W 073°46'9 9.0
2017-Feb-28 16:33N 40°09' W 073°45'1917.1
2017-Feb-28 15:27N 39°51' W 073°44'1716.9
2017-Feb-28 14:26N 39°33' W 073°44'3 3.4
2017-Feb-28 13:30N 39°30' W 073°45'8713.9
2017-Feb-28 07:17N 38°09' W 074°25'1013.9
2017-Feb-28 06:33N 38°01' W 074°31'1414.0
2017-Feb-28 05:33N 37°49' W 074°41'1414.1
2017-Feb-28 04:33N 37°38' W 074°52'1514.1
2017-Feb-28 03:31N 37°26' W 075°03'5210.6
2017-Feb-27 22:33N 36°54' W 075°55'1212.3
2017-Feb-27 21:33N 36°59' W 076°10'10 9.6
2017-Feb-27 20:33N 36°55' W 076°20'4 3.6
2017-Feb-27 19:33N 36°51' W 076°20'0 0.0
2017-Feb-27 17:14N 36°51' W 076°20'0 0.0
2017-Feb-27 16:29N 36°51' W 076°20'0 0.0
2017-Feb-27 15:32N 36°51' W 076°20'0 0.0
2017-Feb-27 14:32N 36°51' W 076°20'0 0.0
2017-Feb-27 13:32N 36°51' W 076°20'0 0.0
2017-Feb-27 12:32N 36°51' W 076°20'0 0.0
2017-Feb-27 11:33N 36°51' W 076°20'5 5.0
2017-Feb-27 10:33N 36°56' W 076°20'1211.8
2017-Feb-27 09:33N 36°58' W 076°06'1110.6
2017-Feb-27 08:34N 36°54' W 075°53'10 9.4
2017-Feb-27 07:31N 36°48' W 075°44'36213.4
2017-Feb-26 04:33N 32°02' W 080°11'1313.6
2017-Feb-26 03:33N 31°58' W 080°27'1010.0
2017-Feb-26 02:33N 31°58' W 080°38'1212.3
2017-Feb-26 01:34N 32°02' W 080°52'1010.4
2017-Feb-26 00:33N 32°05' W 081°04'5 4.5
2017-Feb-25 23:33N 32°08' W 081°08'0 0.0
2017-Feb-25 22:30N 32°08' W 081°08'0 0.0
2017-Feb-25 21:30N 32°08' W 081°08'0 0.0
2017-Feb-25 20:30N 32°08' W 081°08'0 0.0
2017-Feb-25 19:30N 32°08' W 081°08'0 0.0
2017-Feb-25 18:30N 32°08' W 081°08'0 0.0
2017-Feb-25 17:30N 32°08' W 081°08'0 0.0
2017-Feb-25 16:30N 32°08' W 081°08'0 0.0
2017-Feb-25 15:30N 32°08' W 081°08'0 0.0
2017-Feb-25 14:18N 32°08' W 081°08'0 0.0
2017-Feb-25 13:30N 32°08' W 081°08'0 0.0
2017-Feb-25 12:30N 32°08' W 081°08'0 0.0
2017-Feb-25 11:30N 32°08' W 081°08'0 0.0
2017-Feb-25 10:24N 32°08' W 081°08'0 0.0
2017-Feb-25 09:30N 32°08' W 081°08'0 0.0
2017-Feb-25 08:24N 32°08' W 081°08'0 0.0
2017-Feb-25 07:24N 32°08' W 081°08'0 0.0
2017-Feb-25 06:24N 32°08' W 081°08'0 0.0
2017-Feb-25 05:30N 32°08' W 081°08'0 0.0
2017-Feb-25 04:30N 32°08' W 081°08'0 0.0
2017-Feb-25 03:30N 32°08' W 081°08'0 0.0
2017-Feb-25 02:30N 32°08' W 081°08'0 0.0
2017-Feb-25 01:30N 32°08' W 081°08'0 0.0
2017-Feb-25 00:30N 32°08' W 081°08'0 0.0
2017-Feb-24 23:24N 32°08' W 081°08'0 0.0
2017-Feb-24 22:30N 32°08' W 081°08'0 0.0
2017-Feb-24 21:24N 32°08' W 081°08'0 0.0
2017-Feb-24 20:30N 32°08' W 081°08'0 0.0
2017-Feb-24 19:30N 32°08' W 081°08'0 0.4
2017-Feb-24 18:33N 32°08' W 081°08'4 4.2
2017-Feb-24 17:33N 32°05' W 081°05'7 6.9
2017-Feb-24 16:33N 32°04' W 080°57'1010.5
2017-Feb-24 15:34N 31°59' W 080°46'1110.6
2017-Feb-24 14:33N 31°54' W 080°35'2 1.8
2017-Feb-24 13:31N 31°53' W 080°33'0 0.3
2017-Feb-24 12:33N 31°53' W 080°33'1 0.6
2017-Feb-24 11:33N 31°53' W 080°33'3 2.6
2017-Feb-24 10:33N 31°50' W 080°31'3 3.5
2017-Feb-24 09:33N 31°47' W 080°29'  

Dump ship's entire track history